Detroit Lakes, MN

10:52 PM CDT on March 27, 2017 (GMT -0500)
Detroit Lakes

Weather History for KDTL - February, 2013

Change the Weather History Date:

Saturday, February 23, 2013

  Actual Average Record
Temperature  
Mean Temperature 17 °F -  
Max Temperature 26 °F 28 °F 50 °F (1961)
Min Temperature 8 °F 5 °F -32 °F (1939)
Degree Days  
Heating Degree Days 48    
Moisture  
Dew Point 16 °F    
Average Humidity 97    
Maximum Humidity 100    
Minimum Humidity 86    
Precipitation  
Precipitation 0.00 in - - ()
Sea Level Pressure  
Sea Level Pressure 29.85 in    
Wind  
Wind Speed 1 mph (NW)    
Max Wind Speed 8 mph    
Max Gust Speed -    
Visibility 5 miles    
Events Fog , Snow    
Averages and records for this station are not official NWS values.
T = Trace of Precipitation, MM = Missing Value Source: NWS Daily Summary

Daily Weather History Graph

Daily Weather History Graph

Search for Another Location

Airport or City:

Trip Planner

Search our weather history database for the weather conditions in past years. The results will help you decide how hot, cold, wet, or windy it might be!

Date:

Astronomy

Feb. 23, 2013 Rise Set
Actual Time 7:13 AM CST 6:00 PM CST
Civil Twilight 6:42 AM CST 6:31 PM CST
Nautical Twilight 6:07 AM CST 7:06 PM CST
Astronomical Twilight 5:32 AM CST 7:41 PM CST
Moon 4:08 PM CST (2/23) 5:41 AM CST (2/23)
Length of Visible Light 11h 48m
Length of Day
10h 47m
Waxing Gibbous, 95% of the Moon is Illuminated
Feb 23
Waxing Gibbous
Feb 25
Full
Mar 4
Last Quarter
Mar 11
New
Mar 19
First Quarter

Hourly Weather History & Observations

Time (CST) Temp. Windchill Dew Point Humidity Pressure Visibility Wind Dir Wind Speed Gust Speed Precip Events Conditions
12:15 AM 14.0 °F - 12.2 °F 93% 29.87 in 0.2 mi Calm Calm - N/A Fog Light Freezing Fog
12:36 AM 14.0 °F 6.5 °F 12.2 °F 93% 29.87 in 0.5 mi NW 4.6 mph - N/A Fog Light Freezing Fog
1:15 AM 14.0 °F 6.5 °F 14.0 °F 100% 29.86 in 0.5 mi WNW 4.6 mph - N/A Fog Light Freezing Fog
1:36 AM 14.0 °F 8.2 °F 14.0 °F 100% 29.85 in 0.5 mi NW 3.5 mph - N/A Fog Light Freezing Fog
1:55 AM 14.0 °F - 14.0 °F 100% 29.86 in 0.8 mi Calm Calm - N/A   Overcast
2:15 AM 14.0 °F - 14.0 °F 100% 29.86 in 0.8 mi Calm Calm - N/A   Overcast
2:35 AM 14.0 °F - 14.0 °F 100% 29.86 in 0.5 mi Calm Calm - N/A Fog Light Freezing Fog
2:55 AM 14.0 °F 8.2 °F 14.0 °F 100% 29.85 in 0.5 mi NNW 3.5 mph - N/A Fog Light Freezing Fog
3:16 AM 14.0 °F 8.2 °F 14.0 °F 100% 29.85 in 0.5 mi NW 3.5 mph - N/A Snow Light Snow
3:35 AM 14.0 °F 6.5 °F 14.0 °F 100% 29.85 in 1.2 mi WNW 4.6 mph - N/A   Overcast
3:56 AM 14.0 °F - 14.0 °F 100% 29.83 in 4.0 mi Calm Calm - N/A   Overcast
4:16 AM 14.0 °F - 14.0 °F 100% 29.84 in 2.5 mi Calm Calm - N/A   Overcast
4:35 AM 14.0 °F 8.2 °F 14.0 °F 100% 29.83 in 5.0 mi East 3.5 mph - N/A   Overcast
4:56 AM 14.0 °F - 14.0 °F 100% 29.83 in 3.0 mi Calm Calm - N/A   Overcast
5:16 AM 14.0 °F - 14.0 °F 100% 29.83 in 3.0 mi Calm Calm - N/A   Overcast
5:35 AM 14.0 °F - 12.2 °F 93% 29.83 in 4.0 mi Calm Calm - N/A   Overcast
5:56 AM 14.0 °F - 14.0 °F 100% 29.83 in 4.0 mi Calm Calm - N/A   Overcast
6:16 AM 15.8 °F - 14.0 °F 93% 29.83 in 0.8 mi Calm Calm - N/A   Overcast
6:35 AM 15.8 °F - 14.0 °F 93% 29.83 in 0.2 mi Calm Calm - N/A Fog Light Freezing Fog
6:56 AM 14.0 °F - 14.0 °F 100% 29.83 in 0.2 mi Calm Calm - N/A Fog Light Freezing Fog
7:16 AM 14.0 °F - 14.0 °F 100% 29.84 in 0.5 mi Calm Calm - N/A Fog Light Freezing Fog
7:35 AM 14.0 °F - 14.0 °F 100% 29.85 in 2.5 mi Calm Calm - N/A   Overcast
7:56 AM 15.8 °F - 14.0 °F 93% 29.84 in 1.5 mi Calm Calm - N/A   Overcast
8:16 AM 15.8 °F - 14.0 °F 93% 29.83 in 1.0 mi Calm Calm - N/A   Overcast
8:35 AM 17.6 °F - 14.0 °F 86% 29.83 in 2.5 mi Calm Calm - N/A   Overcast
8:56 AM 17.6 °F - 15.8 °F 93% 29.83 in 2.0 mi Calm Calm - N/A   Overcast
9:16 AM 17.6 °F - 17.6 °F 100% 29.83 in 3.0 mi Calm Calm - N/A   Overcast
10:36 AM 21.2 °F - 21.2 °F 100% 29.85 in 10.0 mi Calm Calm - N/A   Overcast
10:55 AM 21.2 °F - 21.2 °F 100% 29.85 in 7.0 mi Calm Calm - N/A   Overcast
11:15 AM 21.2 °F - 21.2 °F 100% 29.86 in 5.0 mi Calm Calm - N/A   Overcast
11:36 AM 23.0 °F - 21.2 °F 93% 29.86 in 7.0 mi Calm Calm - N/A   Overcast
11:55 AM 21.2 °F - 21.2 °F 100% 29.86 in 10.0 mi Calm Calm - N/A   Overcast
12:15 PM 23.0 °F - 23.0 °F 100% 29.86 in 10.0 mi Calm Calm - N/A   Overcast
12:36 PM 23.0 °F - 23.0 °F 100% 29.85 in 10.0 mi Calm Calm - N/A   Overcast
12:55 PM 23.0 °F - 23.0 °F 100% 29.84 in 10.0 mi Calm Calm - N/A   Overcast
1:15 PM 23.0 °F 18.4 °F 23.0 °F 100% 29.83 in 10.0 mi North 3.5 mph - N/A   Overcast
1:36 PM 23.0 °F - 23.0 °F 100% 29.83 in 10.0 mi Calm Calm - N/A   Overcast
1:55 PM 23.0 °F - 23.0 °F 100% 29.83 in 10.0 mi Calm Calm - N/A   Overcast
2:15 PM 23.0 °F - 23.0 °F 100% 29.83 in 10.0 mi Calm Calm - N/A   Overcast
2:36 PM 23.0 °F - 23.0 °F 100% 29.83 in 10.0 mi Calm Calm - N/A   Overcast
2:55 PM 23.0 °F - 23.0 °F 100% 29.83 in 10.0 mi Calm Calm - N/A   Overcast
3:15 PM 23.0 °F - 23.0 °F 100% 29.83 in 10.0 mi Calm Calm - N/A   Overcast
3:36 PM 23.0 °F - 23.0 °F 100% 29.83 in 10.0 mi Calm Calm - N/A   Overcast
3:55 PM 24.8 °F - 23.0 °F 93% 29.83 in 10.0 mi Calm Calm - N/A   Overcast
4:15 PM 24.8 °F 20.5 °F 23.0 °F 93% 29.83 in 10.0 mi ESE 3.5 mph - N/A   Scattered Clouds
4:36 PM 24.8 °F - 23.0 °F 93% 29.84 in 10.0 mi Calm Calm - N/A   Clear
4:56 PM 24.8 °F - 23.0 °F 93% 29.84 in 10.0 mi Calm Calm - N/A   Clear
5:15 PM 26.6 °F - 23.0 °F 86% 29.84 in 10.0 mi Calm Calm - N/A   Clear
5:36 PM 21.2 °F 11.7 °F 19.4 °F 93% 29.85 in 10.0 mi NW 8.1 mph - N/A   Clear
5:56 PM 21.2 °F 13.6 °F 19.4 °F 93% 29.85 in 10.0 mi NW 5.8 mph - N/A   Clear
6:15 PM 19.4 °F 12.8 °F 19.4 °F 100% 29.86 in 10.0 mi NNW 4.6 mph - N/A   Clear
6:36 PM 17.6 °F 10.7 °F 17.6 °F 100% 29.86 in 10.0 mi NNW 4.6 mph - N/A   Clear
6:56 PM 17.6 °F - 17.6 °F 100% 29.86 in 10.0 mi Calm Calm - N/A   Clear
7:15 PM 17.6 °F - 17.6 °F 100% 29.87 in 7.0 mi Calm Calm - N/A   Clear
7:36 PM 17.6 °F - 15.8 °F 93% 29.87 in 7.0 mi Calm Calm - N/A   Clear
7:56 PM 15.8 °F - 14.0 °F 93% 29.87 in 0.5 mi Calm Calm - N/A Fog Light Freezing Fog
8:15 PM 14.0 °F - 14.0 °F 100% 29.88 in 0.5 mi Calm Calm - N/A Fog Light Freezing Fog
8:36 PM 12.2 °F - 12.2 °F 100% 29.88 in 0.2 mi Calm Calm - N/A Fog Light Freezing Fog
8:56 PM 12.2 °F 6.1 °F 10.4 °F 92% 29.89 in 0.5 mi NW 3.5 mph - N/A Fog Light Freezing Fog
9:15 PM 12.2 °F 4.3 °F 10.4 °F 92% 29.90 in 1.0 mi WNW 4.6 mph - N/A   Overcast
9:36 PM 12.2 °F 6.1 °F 10.4 °F 92% 29.90 in 5.0 mi WNW 3.5 mph - N/A   Mostly Cloudy
9:55 PM 10.4 °F - 10.4 °F 100% 29.90 in 5.0 mi Calm Calm - N/A   Clear
10:15 PM 10.4 °F - 8.6 °F 92% 29.91 in 4.0 mi Calm Calm - N/A   Clear
10:36 PM 10.4 °F - 8.6 °F 92% 29.91 in 1.0 mi Calm Calm - N/A   Overcast
10:55 PM 10.4 °F - 8.6 °F 92% 29.91 in 1.5 mi Calm Calm - N/A   Overcast
11:15 PM 8.6 °F - 6.8 °F 92% 29.91 in 7.0 mi Calm Calm - N/A   Overcast
11:36 PM 8.6 °F - 8.6 °F 100% 29.91 in 7.0 mi Calm Calm - N/A   Overcast
11:55 PM 8.6 °F - 6.8 °F 92% 29.92 in 0.2 mi Calm Calm - N/A Fog Light Freezing Fog